Location: Borotín
(49.5055°N, 14.6142°E)
Time: 06:41:16
(UTC+00:00)

Cosmos 2278 Rocket - Pass Details

Date: 27 May 2022
Orbit: 840 x 846 km, 71.0° (Epoch: 28 June)

Event Time Altitude Azimuth Distance (km) Brightness Sun altitude
Rises 01:23:13 0° 314° (NW) 3,416 5.5 -12.3°
Reaches altitude 10° 01:28:02 10° 278° (W) 2,472 4.4 -11.8°
Maximum altitude 01:29:09 11° 266° (W) 2,428 4.2 -11.7°
Drops below altitude 10° 01:30:16 10° 255° (WSW) 2,468 4.2 -11.6°
Enters shadow 01:30:43 10° 250° (WSW) 2,507 4.2 -11.6°
